Weather History for Bishop, CA

Change the Weather History Date:

Sunday, November 18, 2012

  Actual Average Record
Temperature  
Mean Temperature 45 °F 44 °F  
Max Temperature 62 °F 61 °F 77 °F (1976)
Min Temperature 28 °F 27 °F 10 °F (1964)
Degree Days  
Heating Degree Days 20 21  
Month to date heating degree days 342 316  
Since 1 July heating degree days 581 623  
Cooling Degree Days 0 0  
Month to date cooling degree days 0 0  
Year to date cooling degree days 1161 1104  
Moisture  
Dew Point 28 °F    
Average Humidity 59    
Maximum Humidity 92    
Minimum Humidity 25    
Precipitation  
Precipitation 0.00 in 0.02 in 0.51 in (1950)
Month to date precipitation T 0.30  
Year to date precipitation 2.67 4.16  
Snow  
Snow 0.00 in 0.10 in T in (2002)
Month to date snowfall 0.0 0.2  
Since 1 July snowfall 0.0 0.2  
Since 1 September snowfall 0.0 0.2  
Snow Depth 0.00 in    
Sea Level Pressure  
Sea Level Pressure 29.98 in    
Wind  
Wind Speed 4 mph (SW)    
Max Wind Speed 15 mph    
Max Gust Speed 18 mph    
Visibility 10 miles    
Events      
T = Trace of Precipitation, MM = Missing Value Source: NWS Daily Summary

Daily Weather History Graph

Daily Weather History Graph

Search for Another Location

Airport:

Trip Planner

Search our weather history database for the weather conditions in past years. The results will help you decide how hot, cold, wet, or windy it might be!

Date:

Astronomy

Nov. 18, 2012 Rise Set
Actual Time 6:36 AM PST 4:40 PM PST
Civil Twilight 6:08 AM PST 5:08 PM PST
Nautical Twilight 5:36 AM PST 5:40 PM PST
Astronomical Twilight 5:05 AM PST 6:11 PM PST
Moon 11:07 AM PST (11/18) 10:03 PM PST (11/18)
Length of Visible Light 11h 00m
Length of Day
10h 04m
Waxing Crescent, 31% of the Moon is Illuminated
Nov 18
Waxing Crescent
Nov 20
First Quarter
Nov 28
Full
Dec 6
Last Quarter
Dec 13
New

Hourly Weather History & Observations

Time (PST) Temp. Windchill Dew Point Humidity Pressure Visibility Wind Dir Wind Speed Gust Speed Precip Events Conditions
12:56 AM 39.0 °F 34.8 °F 33.1 °F 79% 29.90 in 10.0 mi Variable 5.8 mph - N/A   Clear
1:56 AM 37.9 °F 35.5 °F 32.0 °F 79% 29.90 in 10.0 mi WNW 3.5 mph - N/A   Clear
2:56 AM 32.0 °F 28.7 °F 30.0 °F 92% 29.92 in 10.0 mi NW 3.5 mph - N/A   Clear
3:56 AM 33.1 °F - 30.0 °F 89% 29.92 in 10.0 mi Calm Calm - N/A   Clear
4:56 AM 30.9 °F 23.5 °F 28.9 °F 92% 29.94 in 10.0 mi NE 8.1 mph - N/A   Clear
5:56 AM 30.9 °F - 28.0 °F 89% 29.95 in 10.0 mi Calm Calm - N/A   Clear
6:56 AM 28.0 °F - 26.1 °F 92% 29.99 in 10.0 mi Calm Calm - N/A   Clear
7:56 AM 35.1 °F 32.2 °F 30.0 °F 82% 29.99 in 10.0 mi NNW 3.5 mph - N/A   Clear
8:56 AM 45.0 °F - 33.1 °F 63% 29.99 in 10.0 mi Calm Calm - N/A   Clear
9:56 AM 52.0 °F - 33.1 °F 49% 29.99 in 10.0 mi Calm Calm - N/A   Clear
10:56 AM 54.0 °F - 32.0 °F 43% 29.99 in 10.0 mi SSW 3.5 mph - N/A   Clear
11:56 AM 57.9 °F - 32.0 °F 37% 29.95 in 10.0 mi SSE 6.9 mph - N/A   Clear
12:56 PM 60.1 °F - 30.9 °F 33% 29.94 in 10.0 mi SE 6.9 mph - N/A   Clear
1:56 PM 62.1 °F - 30.0 °F 30% 29.92 in 10.0 mi SSE 9.2 mph - N/A   Clear
2:56 PM 61.0 °F - 28.0 °F 29% 29.95 in 10.0 mi South 11.5 mph - N/A   Clear
3:56 PM 61.0 °F - 25.0 °F 25% 29.96 in 10.0 mi SSE 9.2 mph - N/A   Clear
4:56 PM 55.0 °F - 25.0 °F 31% 29.99 in 10.0 mi Calm Calm - N/A   Clear
5:56 PM 53.1 °F - 24.1 °F 32% 30.01 in 10.0 mi SSW 5.8 mph - N/A   Clear
6:56 PM 48.0 °F - 24.1 °F 39% 30.05 in 10.0 mi North 3.5 mph - N/A   Clear
7:56 PM 43.0 °F 40.3 °F 21.0 °F 42% 30.07 in 10.0 mi WNW 4.6 mph - N/A   Clear
8:56 PM 37.9 °F - 21.0 °F 51% 30.07 in 10.0 mi Calm Calm - N/A   Clear
9:56 PM 39.0 °F - 21.9 °F 50% 30.07 in 10.0 mi Calm Calm - N/A   Clear
10:56 PM 37.0 °F - 21.9 °F 54% 30.07 in 10.0 mi Calm Calm - N/A   Clear
11:56 PM 36.0 °F 33.3 °F 21.9 °F 57% 30.09 in 10.0 mi NW 3.5 mph - N/A   Clear